GW7961 Weather Reports


time (UTC)temp
C
wind
direction
speed
KPH
gust
KPH
rain 1hr
cm
rain 24hr
cm
rain mn
cm
humidity
%
barometer
mb
20260906221041 15 320 14.5 20.9 0.00 0.08 0.08 90 1003.2
20260906220541 15 314 11.3 14.5 0.00 0.08 0.08 90 1003.1
20260906220100 15 331 11.3 17.7 0.00 0.08 0.08 90 1003.1
20260906215542 15 319 11.3 22.5 0.00 0.08 0.08 90 1002.9
20260906215042 15 313 14.5 22.5 0.00 0.08 0.08 90 1003.0
20260906214613 15 324 14.5 19.3 0.00 0.08 0.08 90 1003.0
20260906214041 15 312 9.7 17.7 0.00 0.08 0.08 90 1002.9
20260906213542 14 304 8.0 16.1 0.00 0.08 0.08 90 1003.0
20260906213102 14 345 3.2 6.4 0.00 0.08 0.08 90 1002.9
20260906212545 14 0 0.0 11.3 0.00 0.08 0.08 90 1002.7
20260906212041 14 0 1.6 11.3 0.00 0.08 0.08 90 1002.7
20260906211601 14 225 1.6 8.0 0.00 0.08 0.08 90 1002.8
20260906211041 14 169 1.6 17.7 0.00 0.08 0.08 90 1002.7
20260906210541 14 215 9.7 19.3 0.00 0.08 0.08 90 1002.8
20260906210111 14 243 8.0 19.3 0.00 0.08 0.08 90 1002.9
20260906205542 14 299 11.3 17.7 0.00 0.08 0.08 90 1002.8
20260906205041 15 299 9.7 16.1 0.00 0.08 0.08 90 1002.9
20260906204554 14 300 9.7 14.5 0.00 0.08 0.08 90 1002.9
20260906204042 14 291 1.6 9.7 0.00 0.08 0.08 90 1002.9
20260906203542 14 0 0.0 3.2 0.00 0.08 0.08 90 1002.9
20260906203101 14 0 0.0 12.9 0.00 0.08 0.08 90 1002.9
20260906202541 14 257 1.6 12.9 0.00 0.08 0.08 90 1002.9
20260906202044 14 270 3.2 9.7 0.03 0.08 0.08 90 1003.3
20260906201636 14 315 0.0 6.4 0.05 0.08 0.08 91 1003.2
20260906201041 14 211 1.6 8.0 0.08 0.08 0.08 91 1003.0
20260906200541 14 215 1.6 17.7 0.08 0.08 0.08 91 1002.9
20260906200059 14 278 9.7 17.7 0.08 0.08 0.08 91 1002.9
20260906195540 14 268 4.8 12.9 0.08 0.08 0.08 91 1002.9
20260906195041 14 256 3.2 12.9 0.08 0.08 0.08 91 1002.9
20260906194609 14 289 1.6 16.1 0.08 0.08 0.08 92 1002.7
20260906194042 15 259 6.4 16.1 0.08 0.08 0.08 92 1002.7
20260906193541 15 256 6.4 17.7 0.08 0.08 0.08 92 1002.5
20260906193102 15 261 11.3 29.0 0.08 0.08 0.08 92 1002.4
20260906192541 15 277 6.4 33.8 0.08 0.08 0.08 92 1002.6
20260906192041 15 271 19.3 33.8 0.05 0.05 0.05 92 1002.4
20260906191610 15 335 17.7 29.0 0.00 0.00 0.00 92 1002.5
20260906191044 15 1 17.7 29.0 0.00 0.00 0.00 92 1002.3
20260906190542 15 15 17.7 32.2 0.00 0.00 0.00 92 1002.3
20260906185543 15 72 20.9 35.4 0.00 0.00 0.00 92 1002.6
20260906185041 15 29 20.9 35.4 0.00 0.00 0.00 92 1002.7
20260906184603 15 3 19.3 35.4 0.00 0.00 0.00 92 1002.7
20260906184041 15 345 20.9 33.8 0.00 0.00 0.00 92 1002.9
20260906183542 15 87 20.9 33.8 0.00 0.00 0.00 92 1003.1
20260906183105 15 87 19.3 30.6 0.00 0.00 0.00 92 1003.2
20260906182544 15 358 17.7 32.2 0.00 0.00 0.00 92 1003.3
20260906182044 15 345 19.3 32.2 0.00 0.00 0.00 92 1003.5
20260906181629 15 326 19.3 30.6 0.00 0.00 0.00 92 1003.6
20260906181042 15 330 19.3 32.2 0.00 0.00 0.00 92 1003.7
20260906180542 15 347 19.3 38.6 0.00 0.00 0.00 91 1003.7
20260906180106 15 27 20.9 38.6 0.00 0.00 0.00 91 1003.8
20260906175541 15 330 29.0 38.6 0.00 0.00 0.00 91 1003.8
20260906175041 15 354 29.0 40.2 0.00 0.00 0.00 91 1003.8
20260906174611 15 334 27.4 43.5 0.00 0.00 0.00 91 1003.7
20260906174041 15 329 29.0 45.1 0.00 0.00 0.00 91 1003.9
20260906173542 15 335 30.6 45.1 0.00 0.00 0.00 91 1003.9
20260906173105 15 321 32.2 48.3 0.00 0.00 0.00 91 1004.1
20260906172540 15 335 32.2 48.3 0.00 0.00 0.00 91 1004.2
20260906172041 15 329 33.8 48.3 0.00 0.00 0.00 91 1004.1
20260906171555 15 329 32.2 51.5 0.00 0.00 0.00 91 1004.3
20260906171041 15 330 35.4 51.5 0.00 0.00 0.00 91 1004.1
20260906170541 15 330 33.8 46.7 0.00 0.00 0.00 92 1004.2
20260906170058 15 10 32.2 45.1 0.00 0.00 0.00 92 1004.2
20260906165541 15 329 27.4 40.2 0.00 0.00 0.00 91 1004.3
20260906165041 15 329 29.0 40.2 0.00 0.00 0.00 91 1004.5
20260906164602 15 331 25.7 37.0 0.00 0.00 0.00 91 1004.5
20260906164041 15 304 27.4 38.6 0.00 0.00 0.00 91 1004.6
20260906163541 15 278 27.4 40.2 0.00 0.00 0.00 91 1004.7
20260906163105 15 313 27.4 40.2 0.00 0.00 0.00 91 1004.8
20260906162541 15 358 29.0 40.2 0.00 0.00 0.00 90 1004.9
20260906162038 15 358 30.6 43.5 0.00 0.00 0.00 90 1004.9
20260906161611 15 347 29.0 49.9 0.00 0.00 0.00 90 1004.9
20260906161041 15 345 35.4 49.9 0.00 0.00 0.00 90 1004.9
20260906160541 15 342 35.4 49.9 0.00 0.00 0.00 90 1005.0
20260906160106 15 351 33.8 49.9 0.00 0.00 0.00 90 1005.0
20260906155541 15 348 35.4 51.5 0.00 0.00 0.00 91 1005.0
20260906155041 15 317 33.8 51.5 0.00 0.00 0.00 91 1005.0
20260906154601 15 329 38.6 51.5 0.00 0.00 0.00 91 1005.0
20260906154041 15 334 37.0 51.5 0.00 0.00 0.00 91 1005.3
20260906153541 15 330 32.2 51.5 0.00 0.00 0.00 91 1005.2
20260906153107 15 345 35.4 51.5 0.00 0.00 0.00 91 1005.4
20260906152540 15 336 35.4 46.7 0.00 0.00 0.00 91 1005.5
20260906152046 15 330 33.8 43.5 0.00 0.00 0.00 91 1005.6
20260906151600 15 342 29.0 45.1 0.00 0.00 0.00 91 1005.8
20260906151040 15 337 35.4 51.5 0.00 0.00 0.00 91 1005.8
20260906150544 15 336 32.2 53.1 0.00 0.00 0.00 91 1005.9
20260906145541 15 337 29.0 41.8 0.00 0.00 0.00 91 1006.0
20260906145041 15 308 20.9 32.2 0.00 0.00 0.00 90 1006.2
20260906144559 15 327 24.1 35.4 0.00 0.00 0.00 90 1006.2
20260906144043 15 327 22.5 35.4 0.00 0.00 0.00 91 1006.5
20260906143541 15 320 24.1 38.6 0.00 0.00 0.00 91 1006.6
20260906143105 15 328 29.0 41.8 0.00 0.00 0.00 90 1006.7
20260906142540 16 357 29.0 41.8 0.00 0.00 0.00 90 1006.8
20260906142042 15 327 25.7 37.0 0.00 0.00 0.00 90 1006.9
20260906141601 15 345 22.5 37.0 0.00 0.00 0.00 90 1007.1
20260906141042 15 343 22.5 37.0 0.00 0.00 0.00 90 1007.1
20260906140541 15 347 24.1 38.6 0.00 0.00 0.00 91 1007.1
20260906140107 15 330 27.4 38.6 0.00 0.00 0.00 91 1007.3
20260906135541 15 310 29.0 40.2 0.00 0.00 0.00 91 1007.3
20260906135040 15 334 29.0 41.8 0.00 0.00 0.00 91 1007.3
20260906134617 15 333 27.4 41.8 0.00 0.00 0.00 91 1007.6
20260906134041 15 338 27.4 38.6 0.00 0.00 0.00 91 1007.5
20260906133541 15 333 25.7 38.6 0.00 0.00 0.00 91 1007.6
20260906133113 15 346 24.1 35.4 0.00 0.00 0.00 91 1007.6
20260906132544 15 334 20.9 35.4 0.00 0.00 0.00 91 1007.9
20260906132040 15 335 24.1 32.2 0.00 0.00 0.00 91 1008.0
20260906131602 15 344 20.9 32.2 0.00 0.00 0.00 91 1008.2
20260906131040 15 330 22.5 32.2 0.00 0.00 0.00 92 1008.2
20260906130542 15 326 20.9 32.2 0.00 0.00 0.00 92 1008.2
20260906130113 15 343 22.5 32.2 0.00 0.00 0.00 92 1008.2
20260906125544 15 296 24.1 32.2 0.00 0.00 0.00 92 1008.2
20260906125043 15 353 22.5 33.8 0.00 0.00 0.00 92 1008.3
20260906124612 15 341 20.9 33.8 0.00 0.00 0.00 92 1008.4
20260906124044 15 327 22.5 32.2 0.00 0.00 0.00 92 1008.5
20260906123540 15 328 22.5 32.2 0.00 0.00 0.00 92 1008.5
20260906123102 15 333 25.7 35.4 0.00 0.00 0.00 92 1008.6
20260906122541 15 326 22.5 37.0 0.00 0.00 0.00 92 1008.5
20260906122041 15 309 27.4 37.0 0.00 0.00 0.00 92 1008.6
20260906121611 15 328 25.7 37.0 0.00 0.00 0.00 92 1008.5
20260906121041 15 318 25.7 37.0 0.00 0.00 0.00 92 1008.6
20260906120541 15 337 25.7 37.0 0.00 0.00 0.00 92 1008.6
20260906120057 15 322 27.4 37.0 0.00 0.00 0.00 92 1008.8
20260906115542 15 320 25.7 33.8 0.00 0.00 0.00 92 1008.8
20260906115040 15 312 24.1 33.8 0.00 0.00 0.00 92 1008.9
20260906114607 15 320 24.1 33.8 0.00 0.00 0.00 92 1008.9
20260906114040 15 328 20.9 35.4 0.00 0.00 0.00 92 1008.9
20260906113540 15 334 22.5 35.4 0.00 0.00 0.00 92 1009.1
20260906113110 15 324 27.4 35.4 0.00 0.00 0.00 92 1009.2
20260906112540 15 337 25.7 38.6 0.00 0.00 0.00 91 1009.4
20260906112041 15 322 27.4 38.6 0.00 0.00 0.00 91 1009.4
20260906111558 15 329 25.7 33.8 0.00 0.00 0.00 91 1009.5
20260906111041 15 325 22.5 30.6 0.00 0.00 0.00 91 1009.5
20260906110541 15 353 19.3 33.8 0.00 0.00 0.00 91 1009.6
20260906110054 15 341 24.1 35.4 0.00 0.00 0.00 91 1009.7
20260906105541 15 322 25.7 35.4 0.00 0.00 0.00 91 1009.7
20260906105043 15 328 22.5 32.2 0.00 0.00 0.00 90 1009.8
20260906104601 15 357 20.9 33.8 0.00 0.00 0.00 90 1009.9
20260906104051 15 14 20.9 35.4 0.00 0.00 0.00 90 1010.0
20260906103541 15 351 25.7 45.1 0.00 0.00 0.00 90 1010.1
20260906103059 15 320 30.6 45.1 0.00 0.00 0.00 89 1010.2
20260906102542 15 335 27.4 38.6 0.00 0.00 0.00 89 1010.2
20260906102043 15 330 27.4 41.8 0.00 0.00 0.00 89 1010.2
20260906101605 15 353 29.0 41.8 0.00 0.00 0.00 89 1010.2
20260906101040 15 1 27.4 38.6 0.00 0.00 0.00 89 1010.3
20260906100541 15 335 24.1 35.4 0.00 0.00 0.00 89 1010.4
20260906100100 15 326 27.4 38.6 0.00 0.00 0.00 89 1010.5
20260906095540 15 333 29.0 38.6 0.00 0.00 0.00 88 1010.5
20260906095041 15 287 27.4 37.0 0.00 0.00 0.00 88 1010.7
20260906094559 15 341 24.1 32.2 0.00 0.00 0.00 88 1010.5
20260906094040 15 335 17.7 24.1 0.00 0.00 0.00 88 1010.6
20260906093540 15 319 16.1 24.1 0.00 0.00 0.00 88 1010.6
20260906093108 15 310 16.1 29.0 0.00 0.00 0.00 88 1010.7
20260906092541 15 305 19.3 33.8 0.00 0.00 0.00 88 1010.7
20260906092043 15 318 22.5 33.8 0.00 0.00 0.00 89 1010.8
20260906091602 15 326 22.5 33.8 0.00 0.00 0.00 89 1010.9
20260906091041 15 336 24.1 33.8 0.00 0.00 0.00 89 1010.9
20260906090540 15 326 19.3 25.7 0.00 0.00 0.00 89 1011.0
20260906090111 15 342 14.5 30.6 0.00 0.00 0.00 89 1011.0
20260906085540 15 30 17.7 30.6 0.00 0.00 0.00 89 1011.0
20260906085042 15 334 17.7 32.2 0.00 0.00 0.00 89 1011.1
20260906084603 15 334 20.9 32.2 0.00 0.00 0.00 88 1011.1
20260906084040 15 339 19.3 29.0 0.00 0.00 0.00 88 1011.0
20260906083541 15 350 19.3 29.0 0.00 0.00 0.00 88 1010.9
20260906083100 15 326 20.9 29.0 0.00 0.00 0.00 88 1010.9
20260906082541 15 337 20.9 29.0 0.00 0.00 0.00 88 1010.9
20260906082041 15 317 17.7 29.0 0.00 0.00 0.00 87 1011.0
20260906081601 15 331 17.7 25.7 0.00 0.00 0.00 87 1010.9
20260906081045 15 344 14.5 24.1 0.00 0.00 0.00 86 1010.9
20260906080543 15 347 16.1 24.1 0.00 0.00 0.00 87 1011.0
20260906080103 15 330 14.5 20.9 0.00 0.00 0.00 87 1011.1
20260906075541 15 308 14.5 20.9 0.00 0.00 0.00 86 1011.0
20260906075040 15 356 11.3 22.5 0.00 0.00 0.00 87 1011.1
20260906074559 15 318 14.5 24.1 0.00 0.00 0.00 87 1011.3
20260906074040 15 321 17.7 24.1 0.00 0.00 0.00 87 1011.3
20260906073541 15 324 17.7 22.5 0.00 0.00 0.00 87 1011.4
20260906073104 15 332 14.5 22.5 0.00 0.00 0.00 87 1011.5
20260906072547 15 328 16.1 29.0 0.00 0.00 0.00 87 1011.6
20260906072042 15 320 17.7 29.0 0.00 0.00 0.00 87 1011.7
20260906071608 15 325 22.5 33.8 0.00 0.00 0.00 87 1011.7
20260906071041 15 320 24.1 33.8 0.00 0.00 0.00 87 1011.8
20260906070543 15 351 22.5 32.2 0.00 0.00 0.00 87 1011.8
20260906070100 15 326 16.1 32.2 0.00 0.00 0.00 87 1011.9
20260906065543 15 309 19.3 32.2 0.00 0.00 0.00 87 1012.1
20260906065043 15 320 24.1 32.2 0.00 0.00 0.00 87 1012.0
20260906064603 15 332 24.1 30.6 0.00 0.00 0.00 87 1011.9
20260906064044 15 314 22.5 30.6 0.00 0.00 0.00 86 1012.0
20260906063547 15 319 20.9 27.4 0.00 0.00 0.00 86 1012.2
20260906063100 15 332 17.7 25.7 0.00 0.00 0.00 86 1012.2
20260906062546 15 334 16.1 24.1 0.00 0.00 0.00 86 1012.2
20260906062044 15 322 17.7 24.1 0.00 0.00 0.00 85 1012.3
20260906061605 15 330 17.7 24.1 0.00 0.00 0.00 85 1012.2
20260906061040 15 349 17.7 22.5 0.00 0.00 0.00 84 1012.3
20260906060543 15 339 17.7 24.1 0.00 0.00 0.00 84 1012.2
20260906060150 15 323 16.1 24.1 0.00 0.00 0.00 84 1012.3
20260906055541 15 322 17.7 25.7 0.00 0.00 0.00 84 1012.3
20260906055041 15 330 17.7 29.0 0.00 0.00 0.00 84 1012.3
20260906054616 15 328 19.3 29.0 0.00 0.00 0.00 83 1012.4
20260906054041 15 323 20.9 30.6 0.00 0.00 0.00 83 1012.4
20260906053545 15 332 20.9 30.6 0.00 0.00 0.00 82 1012.3
20260906053102 15 353 20.9 30.6 0.00 0.00 0.00 82 1012.4
20260906052540 15 326 20.9 32.2 0.00 0.00 0.00 82 1012.3
20260906052041 15 318 20.9 32.2 0.00 0.00 0.00 81 1012.3
20260906051605 15 333 22.5 32.2 0.00 0.00 0.00 80 1012.3
20260906051040 16 335 19.3 29.0 0.00 0.00 0.00 80 1012.3
20260906050540 16 328 19.3 29.0 0.00 0.00 0.00 80 1012.3
20260906050113 16 302 19.3 29.0 0.00 0.00 0.00 79 1012.3
20260906045541 16 333 16.1 25.7 0.00 0.00 0.00 79 1012.5
20260906045041 16 322 12.9 19.3 0.00 0.00 0.00 77 1012.6
20260906044603 16 326 11.3 19.3 0.00 0.00 0.00 76 1012.7
20260906044044 16 295 8.0 17.7 0.00 0.00 0.00 76 1012.7
20260906043540 16 283 9.7 17.7 0.00 0.00 0.00 78 1012.7
20260906043105 16 308 12.9 17.7 0.00 0.00 0.00 77 1012.8
20260906042541 16 308 8.0 14.5 0.00 0.00 0.00 77 1012.9
20260906042040 16 294 6.4 22.5 0.00 0.00 0.00 77 1012.9
20260906041559 16 274 12.9 24.1 0.00 0.00 0.00 78 1013.0
20260906041040 16 318 14.5 27.4 0.00 0.00 0.00 79 1012.9
20260906040540 15 303 17.7 29.0 0.00 0.00 0.00 78 1013.0
20260906040109 15 330 17.7 29.0 0.00 0.00 0.00 79 1013.0
20260906035541 15 326 20.9 29.0 0.00 0.00 0.00 78 1013.1
20260906035043 16 324 19.3 29.0 0.00 0.00 0.00 78 1013.2
20260906034602 16 326 20.9 29.0 0.00 0.00 0.00 78 1013.3
20260906034042 16 320 20.9 29.0 0.00 0.00 0.00 78 1013.3
20260906033540 16 327 19.3 29.0 0.00 0.00 0.00 76 1013.4
20260906033104 16 335 16.1 25.7 0.00 0.00 0.00 75 1013.5
20260906032540 16 323 16.1 25.7 0.00 0.00 0.00 72 1013.6
20260906032040 16 307 16.1 25.7 0.00 0.00 0.00 72 1013.6
20260906031617 16 308 17.7 27.4 0.00 0.00 0.00 73 1013.6
20260906031041 16 318 16.1 27.4 0.00 0.00 0.00 73 1013.7
20260906030540 16 329 19.3 27.4 0.00 0.00 0.00 72 1013.9
20260906030104 16 331 14.5 24.1 0.00 0.00 0.00 71 1014.0
20260906025540 16 302 14.5 30.6 0.00 0.00 0.00 72 1013.9
20260906025041 16 308 17.7 30.6 0.00 0.00 0.00 69 1013.9
20260906024605 16 303 16.1 24.1 0.00 0.00 0.00 71 1014.0
20260906024040 17 303 17.7 24.1 0.00 0.00 0.00 70 1014.0
20260906023540 17 324 19.3 24.1 0.00 0.00 0.00 70 1014.0
20260906023109 17 320 17.7 27.4 0.00 0.00 0.00 71 1013.8
20260906022543 17 303 17.7 29.0 0.00 0.00 0.00 71 1013.9
20260906022041 17 297 19.3 29.0 0.00 0.00 0.00 69 1014.0
20260906021602 17 299 19.3 29.0 0.00 0.00 0.00 69 1013.9
20260906021042 17 301 19.3 29.0 0.00 0.00 0.00 68 1013.9
20260906020541 17 310 16.1 27.4 0.00 0.00 0.00 69 1014.0
20260906015540 17 308 19.3 45.1 0.00 0.00 0.00 67 1014.0
20260906015040 17 274 17.7 45.1 0.00 0.00 0.00 67 1013.9
20260906014600 17 299 24.1 45.1 0.00 0.00 0.00 68 1014.1
20260906014040 17 320 16.1 32.2 0.00 0.00 0.00 68 1014.2
20260906013540 17 298 20.9 32.2 0.00 0.00 0.00 68 1014.6
20260906013101 17 304 20.9 27.4 0.00 0.00 0.00 68 1014.5
20260906012542 17 308 17.7 37.0 0.00 0.00 0.00 68 1014.5
20260906012043 17 289 20.9 37.0 0.00 0.00 0.00 66 1014.6
20260906011605 17 265 17.7 33.8 0.00 0.00 0.00 67 1014.7
20260906011041 17 298 19.3 33.8 0.00 0.00 0.00 67 1014.9
20260906010540 17 306 22.5 33.8 0.00 0.00 0.00 67 1015.0
20260906010107 17 304 20.9 30.6 0.00 0.00 0.00 67 1015.0
20260906005540 17 272 12.9 29.0 0.00 0.00 0.00 66 1015.2
20260906005040 17 290 12.9 29.0 0.00 0.00 0.00 65 1015.2
20260906004608 16 260 14.5 22.5 0.00 0.00 0.00 64 1015.2
20260906004040 16 258 12.9 25.7 0.00 0.00 0.00 64 1015.4
20260906003540 16 277 16.1 27.4 0.00 0.00 0.00 67 1015.5
20260906003105 16 279 19.3 27.4 0.00 0.00 0.00 66 1015.5
20260906002540 16 302 11.3 20.9 0.00 0.00 0.00 65 1015.7
20260906002041 16 297 12.9 25.7 0.00 0.00 0.00 68 1015.8
20260906001601 16 297 12.9 25.7 0.00 0.00 0.00 67 1015.9
20260906001040 17 295 19.3 32.2 0.00 0.00 0.00 68 1015.9
20260906000540 17 306 17.7 32.2 0.00 0.00 0.00 68 1016.0
20260906000109 17 296 22.5 29.0 0.00 0.00 0.00 68 1016.2
20260905235543 17 301 17.7 29.0 0.00 0.00 0.00 70 1016.2
20260905235040 16 294 19.3 29.0 0.00 0.00 0.00 70 1016.3
20260905234604 17 297 12.9 24.1 0.00 0.00 0.00 70 1016.4
20260905234040 17 301 14.5 24.1 0.00 0.00 0.00 72 1016.5
20260905233540 16 301 14.5 22.5 0.00 0.00 0.00 71 1016.7
20260905233106 16 285 14.5 22.5 0.00 0.00 0.00 72 1016.7
20260905232540 16 303 11.3 25.7 0.00 0.00 0.00 71 1016.8
20260905232042 16 263 14.5 25.7 0.00 0.00 0.00 71 1017.0
20260905231617 16 290 14.5 24.1 0.00 0.00 0.00 72 1017.1
20260905231041 16 312 14.5 22.5 0.00 0.00 0.00 72 1017.1
20260905230542 16 301 12.9 22.5 0.00 0.00 0.00 73 1017.1
20260905230108 16 282 16.1 24.1 0.00 0.00 0.00 73 1017.3
20260905225541 16 307 16.1 27.4 0.00 0.00 0.00 72 1017.3
20260905225042 16 295 14.5 27.4 0.00 0.00 0.00 73 1017.5
20260905224559 16 290 16.1 27.4 0.00 0.00 0.00 72 1017.7
20260905224041 16 268 16.1 27.4 0.00 0.00 0.00 72 1017.8
20260905223541 16 278 14.5 27.4 0.00 0.00 0.00 74 1017.7
20260905223102 16 306 17.7 27.4 0.00 0.00 0.00 75 1017.7
20260905222541 16 297 16.1 27.4 0.00 0.00 0.00 75 1017.8
20260905222042 15 298 16.1 29.0 0.00 0.00 0.00 76 1017.9
20260905221610 15 267 19.3 30.6 0.00 0.00 0.00 76 1017.8